Petersburg, AK

12:07 PM AKDT on August 21, 2017 (GMT -0800)
Johnson Petersburg

Weather History for PAPG - June, 2013

Change the Weather History Date:

Wednesday, June 12, 2013

  Actual Average Record
Temperature  
Mean Temperature 61 °F -  
Max Temperature 69 °F 57 °F 73 °F (1992)
Min Temperature 53 °F 45 °F 35 °F (1985)
Degree Days  
Heating Degree Days 4    
Growing Degree Days 11 (Base 50)    
Moisture  
Dew Point 48 °F    
Average Humidity 61    
Maximum Humidity 77    
Minimum Humidity 49    
Precipitation  
Precipitation 0.00 in - - ()
Sea Level Pressure  
Sea Level Pressure 30.02 in    
Wind  
Wind Speed 3 mph (ENE)    
Max Wind Speed 8 mph    
Max Gust Speed -    
Visibility 10 miles    
Events Rain , Thunderstorm    
Averages and records for this station are not official NWS values.
T = Trace of Precipitation, MM = Missing Value Source: NWS Daily Summary

Daily Weather History Graph

Daily Weather History Graph

Search for Another Location

Airport or City:

Trip Planner

Search our weather history database for the weather conditions in past years. The results will help you decide how hot, cold, wet, or windy it might be!

Date:

Astronomy

Jun. 12, 2013 Rise Set
Actual Time 3:59 AM AKDT 9:44 PM AKDT
Civil Twilight 2:53 AM AKDT 10:50 PM AKDT
Nautical Twilight 1:24 AM AKDT 12:19 AM AKDT
Astronomical Twilight Sun does not set Sun does not set
Moon 8:26 AM AKDT (6/12) 11:35 PM AKDT (6/12)
Length of Visible Light 19h 57m
Length of Day
17h 45m
Waxing Crescent, 15% of the Moon is Illuminated
Jun 12
Waxing Crescent
Jun 16
First Quarter
Jun 23
Full
Jun 29
Last Quarter
Jul 7
New

Hourly Weather History & Observations

Time (AKDT) Temp. Dew Point Humidity Pressure Visibility Wind Dir Wind Speed Gust Speed Precip Events Conditions
12:16 AM 55.4 °F 46.4 °F 72% 29.96 in 10.0 mi WSW 4.6 mph - N/A   Unknown
12:36 AM 55.4 °F 46.4 °F 72% 29.97 in 10.0 mi ENE 5.8 mph - N/A   Overcast
12:56 AM 55.4 °F 46.4 °F 72% 29.97 in 10.0 mi Calm Calm - N/A   Scattered Clouds
1:16 AM 55.4 °F 46.4 °F 72% 29.97 in 10.0 mi SSW 3.5 mph - N/A   Mostly Cloudy
1:36 AM 55.4 °F 46.4 °F 72% 29.98 in 10.0 mi Calm Calm - N/A   Overcast
1:56 AM 55.4 °F 46.4 °F 72% 29.98 in 10.0 mi Calm Calm - N/A   Scattered Clouds
2:16 AM 53.6 °F 46.4 °F 77% 29.98 in 10.0 mi Calm Calm - N/A   Clear
2:36 AM 53.6 °F 46.4 °F 77% 29.98 in 10.0 mi Calm Calm - N/A   Clear
6:16 AM 57.2 °F 46.4 °F 67% 30.01 in 10.0 mi Calm Calm - N/A   Clear
6:36 AM 57.2 °F 46.4 °F 67% 30.01 in 10.0 mi Calm Calm - N/A   Clear
6:56 AM 57.2 °F 46.4 °F 67% 30.01 in 10.0 mi NE 4.6 mph - N/A   Clear
7:16 AM 57.2 °F 46.4 °F 67% 30.01 in 10.0 mi Calm Calm - N/A   Clear
7:56 AM 59.0 °F 46.4 °F 63% 30.01 in 10.0 mi Calm Calm - N/A   Clear
8:36 AM 57.2 °F 46.4 °F 67% 30.02 in 10.0 mi Calm Calm - N/A   Clear
8:56 AM 62.6 °F 48.2 °F 59% 30.02 in 10.0 mi ENE 4.6 mph - N/A   Clear
9:36 AM 60.8 °F 46.4 °F 59% 30.02 in 10.0 mi NNE 4.6 mph - N/A   Clear
9:56 AM 62.6 °F 46.4 °F 55% 30.02 in 10.0 mi NE 3.5 mph - N/A   Clear
10:16 AM 64.4 °F 48.2 °F 56% 30.02 in 10.0 mi ENE 5.8 mph - N/A   Clear
10:36 AM 64.4 °F 48.2 °F 56% 30.02 in 10.0 mi NE 5.8 mph - N/A   Clear
10:56 AM 66.2 °F 48.2 °F 52% 30.02 in 10.0 mi ENE 6.9 mph - N/A   Partly Cloudy
11:16 AM 66.2 °F 46.4 °F 49% 30.02 in 10.0 mi ENE 6.9 mph - N/A   Partly Cloudy
11:56 AM 64.4 °F 46.4 °F 52% 30.02 in 10.0 mi ENE 5.8 mph - N/A   Partly Cloudy
12:16 PM 64.4 °F 46.4 °F 52% 30.02 in 10.0 mi ENE 6.9 mph - N/A   Partly Cloudy
12:36 PM 64.4 °F 48.2 °F 56% 30.02 in 10.0 mi NE 5.8 mph - N/A   Partly Cloudy
12:56 PM 66.2 °F 48.2 °F 52% 30.02 in 10.0 mi NE 6.9 mph - N/A   Partly Cloudy
1:16 PM 66.2 °F 50.0 °F 56% 30.02 in 10.0 mi NE 8.1 mph - N/A   Partly Cloudy
1:36 PM 66.2 °F 48.2 °F 52% 30.02 in 10.0 mi ENE 5.8 mph - N/A   Partly Cloudy
1:56 PM 66.2 °F 48.2 °F 52% 30.02 in 10.0 mi ENE 4.6 mph - N/A   Scattered Clouds
2:16 PM 66.2 °F 48.2 °F 52% 30.03 in 10.0 mi East 4.6 mph - N/A   Scattered Clouds
2:36 PM 66.2 °F 48.2 °F 52% 30.03 in 10.0 mi East 5.8 mph - N/A   Scattered Clouds
2:56 PM 64.4 °F 46.4 °F 52% 30.03 in 10.0 mi NE 6.9 mph - N/A   Mostly Cloudy
3:16 PM 64.4 °F 48.2 °F 56% 30.03 in 10.0 mi ENE 4.6 mph - N/A   Mostly Cloudy
3:25 PM 62.6 °F 48.2 °F 59% 30.03 in 10.0 mi ENE 4.6 mph - N/A Rain , Thunderstorm Thunderstorms and Rain
3:36 PM 62.6 °F 48.2 °F 59% 30.03 in 10.0 mi East 4.6 mph - N/A   Mostly Cloudy
3:56 PM 62.6 °F 48.2 °F 59% 30.03 in - ENE 4.6 mph - N/A   Mostly Cloudy
4:16 PM 62.6 °F 48.2 °F 59% 30.03 in 10.0 mi NE 5.8 mph - N/A   Mostly Cloudy
4:36 PM 66.2 °F 48.2 °F 52% 30.03 in 10.0 mi NE 5.8 mph - N/A   Mostly Cloudy
4:56 PM 66.2 °F 48.2 °F 52% 30.03 in 10.0 mi NE 4.6 mph - N/A   Scattered Clouds
5:10 PM 66.2 °F 48.2 °F 52% 30.03 in 10.0 mi Calm Calm - N/A Thunderstorm Thunderstorm
5:16 PM 66.2 °F 48.2 °F 52% 30.03 in 10.0 mi West 3.5 mph - N/A   Mostly Cloudy
5:36 PM 69.8 °F 51.8 °F 53% 30.03 in 10.0 mi NW 3.5 mph - N/A   Mostly Cloudy
5:56 PM 68.0 °F 50.0 °F 52% 30.02 in 10.0 mi ENE 5.8 mph - N/A   Scattered Clouds
6:16 PM 64.4 °F 50.0 °F 59% 30.02 in 10.0 mi ENE 4.6 mph - N/A   Scattered Clouds
6:36 PM 64.4 °F 50.0 °F 59% 30.02 in 10.0 mi ENE 5.8 mph - N/A   Scattered Clouds
6:56 PM 66.2 °F 50.0 °F 56% 30.02 in 10.0 mi ENE 5.8 mph - N/A   Scattered Clouds
7:16 PM 64.4 °F 48.2 °F 56% 30.03 in 10.0 mi NE 4.6 mph - N/A   Scattered Clouds
7:36 PM 64.4 °F 48.2 °F 56% 30.03 in 10.0 mi East 4.6 mph - N/A   Scattered Clouds
7:56 PM 64.4 °F 48.2 °F 56% 30.03 in 10.0 mi Calm Calm - N/A   Scattered Clouds
8:16 PM 64.4 °F 48.2 °F 56% 30.04 in 10.0 mi Calm Calm - N/A   Scattered Clouds
8:36 PM 64.4 °F 48.2 °F 56% 30.04 in 10.0 mi NW 3.5 mph - N/A   Scattered Clouds
8:56 PM 62.6 °F 48.2 °F 59% 30.05 in 10.0 mi Calm Calm - N/A   Scattered Clouds
9:16 PM 60.8 °F 48.2 °F 63% 30.05 in 10.0 mi NE 4.6 mph - N/A   Scattered Clouds
9:36 PM 59.0 °F 48.2 °F 67% 30.06 in 10.0 mi East 3.5 mph - N/A   Scattered Clouds
9:56 PM 57.2 °F 48.2 °F 72% 30.06 in 10.0 mi Calm Calm - N/A   Scattered Clouds
11:16 PM 55.4 °F 48.2 °F 77% 30.09 in 10.0 mi Calm Calm - N/A   Unknown
11:36 PM 55.4 °F 48.2 °F 77% 30.09 in 10.0 mi Calm Calm - N/A   Scattered Clouds
11:56 PM 53.6 °F 46.4 °F 77% 30.09 in 10.0 mi SW 3.5 mph - N/A   Clear